When you browse on this site, cookies collect data to enhance your experience and personalize the content and advertising you see.
Visit our Privacy Policy to learn more. By continuing to use the site, you agree to this use of cookies and data.
  • en Suisse
  • Liste des pays
  • À 7 jours
  • Température de l'eau
  • Carte satellitaire
  • Carte météo
  • Widgets météo
  • user-avatar
    Se connecter

    Météo par heure à Isfahan

    Ce jour, 11 Décembre, Mardi

    Heure Température Précipitation Vent Pression Humidité
    00:00 +6°C° 0 mm 0 m/s 628 mmHg 44%
    01:00 +6°C° 0 mm 0 m/s 628 mmHg 44%
    02:00 +7°C° 0 mm 1 m/s 628 mmHg 44%
    03:00 +6°C° 0 mm 1 m/s 628 mmHg 44%
    04:00 +6°C° 0 mm 1 m/s 628 mmHg 44%
    05:00 +6°C° 0 mm 1 m/s 629 mmHg 44%
    06:00 +5°C° 0 mm 1 m/s 629 mmHg 44%
    07:00 +7°C° 0 mm 1 m/s 630 mmHg 40%
    08:00 +8°C° 0 mm 1 m/s 630 mmHg 36%
    09:00 +9°C° 0 mm 1 m/s 631 mmHg 32%
    10:00 +10°C° 0 mm 1 m/s 631 mmHg 29%
    11:00 +11°C° 0 mm 1 m/s 631 mmHg 26%
    12:00 +12°C° 0 mm 1 m/s 631 mmHg 23%
    13:00 +12°C° 0 mm 1 m/s 631 mmHg 22%
    14:00 +13°C° 0 mm 1 m/s 631 mmHg 21%
    15:00 +13°C° 0 mm 1 m/s 631 mmHg 20%
    16:00 +12°C° 0 mm 1 m/s 631 mmHg 23%
    17:00 +11°C° 0 mm 1 m/s 631 mmHg 26%
    18:00 +10°C° 0 mm 1 m/s 631 mmHg 29%
    19:00 +10°C° 0 mm 1 m/s 631 mmHg 30%
    20:00 +9°C° 0 mm 1 m/s 630 mmHg 31%
    21:00 +8°C° 0 mm 1 m/s 630 mmHg 32%
    22:00 +7°C° 0 mm 0 m/s 630 mmHg 32%
    23:00 +7°C° 0 mm 0 m/s 630 mmHg 33%

    Demain, 12 Décembre, Mercredi

    Heure Température Précipitation Vent Pression Humidité
    00:00 +6°C° 0 mm 0 m/s 630 mmHg 33%
    01:00 +6°C° 0 mm 0 m/s 630 mmHg 34%
    02:00 +5°C° 0 mm 0 m/s 629 mmHg 34%
    03:00 +5°C° 0 mm 0 m/s 629 mmHg 34%
    04:00 +5°C° 0 mm 0 m/s 629 mmHg 34%
    05:00 +4°C° 0 mm 0 m/s 629 mmHg 35%
    06:00 +4°C° 0 mm 0 m/s 629 mmHg 35%
    07:00 +6°C° 0 mm 0 m/s 630 mmHg 31%
    08:00 +7°C° 0 mm 0 m/s 631 mmHg 27%
    09:00 +9°C° 0 mm 0 m/s 632 mmHg 23%
    10:00 +10°C° 0 mm 0 m/s 632 mmHg 21%
    11:00 +12°C° 0 mm 1 m/s 632 mmHg 20%
    12:00 +13°C° 0 mm 1 m/s 632 mmHg 18%
    13:00 +13°C° 0 mm 1 m/s 632 mmHg 17%
    14:00 +14°C° 0 mm 1 m/s 632 mmHg 17%
    15:00 +14°C° 0 mm 1 m/s 632 mmHg 16%
    16:00 +13°C° 0 mm 1 m/s 631 mmHg 20%
    17:00 +11°C° 0 mm 1 m/s 631 mmHg 23%
    18:00 +10°C° 0 mm 1 m/s 631 mmHg 27%
    19:00 +10°C° 0 mm 1 m/s 631 mmHg 28%
    20:00 +9°C° 0 mm 1 m/s 631 mmHg 29%
    21:00 +9°C° 0 mm 1 m/s 630 mmHg 30%
    22:00 +7°C° 0 mm 0 m/s 630 mmHg 30%
    23:00 +7°C° 0 mm 0 m/s 630 mmHg 30%

    Après-demain, 13 Décembre, Jeudi

    Heure Température Précipitation Vent Pression Humidité
    00:00 +6°C° 0 mm 0 m/s 630 mmHg 30%
    01:00 +6°C° 0 mm 0 m/s 630 mmHg 30%
    02:00 +6°C° 0 mm 0 m/s 629 mmHg 30%
    03:00 +5°C° 0 mm 0 m/s 629 mmHg 30%
    04:00 +5°C° 0 mm 0 m/s 629 mmHg 30%
    05:00 +5°C° 0 mm 0 m/s 629 mmHg 30%
    06:00 +5°C° 0 mm 0 m/s 629 mmHg 30%
    07:00 +6°C° 0 mm 0 m/s 630 mmHg 27%
    08:00 +9°C° 0 mm 1 m/s 631 mmHg 23%
    09:00 +10°C° 0 mm 1 m/s 632 mmHg 20%
    10:00 +12°C° 0 mm 1 m/s 632 mmHg 18%
    11:00 +13°C° 0 mm 1 m/s 632 mmHg 17%
    12:00 +14°C° 0 mm 1 m/s 632 mmHg 15%
    13:00 +14°C° 0 mm 1 m/s 632 mmHg 15%
    14:00 +14°C° 0 mm 1 m/s 632 mmHg 14%
    15:00 +15°C° 0 mm 1 m/s 632 mmHg 14%
    16:00 +13°C° 0 mm 1 m/s 632 mmHg 17%
    17:00 +12°C° 0 mm 1 m/s 632 mmHg 20%
    18:00 +11°C° 0 mm 1 m/s 631 mmHg 23%
    19:00 +10°C° 0 mm 1 m/s 631 mmHg 24%
    20:00 +10°C° 0 mm 1 m/s 632 mmHg 24%
    21:00 +8°C° 0 mm 0 m/s 632 mmHg 25%
    22:00 +8°C° 0 mm 0 m/s 631 mmHg 25%
    23:00 +8°C° 0 mm 1 m/s 631 mmHg 25%

    14 Décembre, Vendredi

    Heure Température Précipitation Vent Pression Humidité
    00:00 +8°C° 0 mm 1 m/s 631 mmHg 25%
    01:00 +7°C° 0 mm 1 m/s 631 mmHg 25%
    02:00 +7°C° 0 mm 1 m/s 630 mmHg 25%
    03:00 +7°C° 0 mm 1 m/s 630 mmHg 25%
    04:00 +6°C° 0 mm 1 m/s 630 mmHg 25%
    05:00 +6°C° 0 mm 1 m/s 631 mmHg 25%
    06:00 +6°C° 0 mm 1 m/s 631 mmHg 24%
    07:00 +7°C° 0 mm 1 m/s 632 mmHg 22%
    08:00 +9°C° 0 mm 1 m/s 632 mmHg 19%
    09:00 +10°C° 0 mm 1 m/s 633 mmHg 16%
    10:00 +11°C° 0 mm 1 m/s 633 mmHg 15%
    11:00 +12°C° 0 mm 1 m/s 633 mmHg 13%
    12:00 +12°C° 0 mm 0 m/s 633 mmHg 12%
    13:00 +14°C° 0 mm 1 m/s 633 mmHg 12%
    14:00 +14°C° 0 mm 1 m/s 633 mmHg 12%
    15:00 +14°C° 0 mm 1 m/s 633 mmHg 12%
    16:00 +13°C° 0 mm 1 m/s 633 mmHg 14%
    17:00 +12°C° 0 mm 1 m/s 633 mmHg 17%
    18:00 +11°C° 0 mm 1 m/s 632 mmHg 20%
    19:00 +10°C° 0 mm 1 m/s 632 mmHg 21%
    20:00 +9°C° 0 mm 1 m/s 632 mmHg 22%
    21:00 +9°C° 0 mm 1 m/s 632 mmHg 23%
    22:00 +8°C° 0 mm 1 m/s 632 mmHg 25%
    23:00 +8°C° 0 mm 1 m/s 631 mmHg 26%

    15 Décembre, Samedi

    Heure Température Précipitation Vent Pression Humidité
    00:00 +7°C° 0 mm 1 m/s 631 mmHg 27%
    01:00 +7°C° 0 mm 1 m/s 631 mmHg 28%
    02:00 +7°C° 0 mm 1 m/s 631 mmHg 29%
    03:00 +6°C° 0 mm 1 m/s 630 mmHg 30%
    04:00 +6°C° 0 mm 1 m/s 630 mmHg 31%
    05:00 +5°C° 0 mm 1 m/s 630 mmHg 32%
    06:00 +5°C° 0 mm 1 m/s 631 mmHg 33%
    07:00 +7°C° 0 mm 1 m/s 631 mmHg 30%
    08:00 +8°C° 0 mm 1 m/s 632 mmHg 28%
    09:00 +10°C° 0 mm 1 m/s 633 mmHg 25%
    10:00 +11°C° 0 mm 1 m/s 633 mmHg 24%
    11:00 +12°C° 0 mm 1 m/s 633 mmHg 22%
    12:00 +12°C° 0 mm 0 m/s 633 mmHg 21%
    13:00 +13°C° 0 mm 1 m/s 633 mmHg 20%
    14:00 +13°C° 0 mm 1 m/s 633 mmHg 19%
    15:00 +14°C° 0 mm 1 m/s 633 mmHg 19%
    16:00 +13°C° 0 mm 1 m/s 633 mmHg 22%
    17:00 +11°C° 0 mm 1 m/s 633 mmHg 25%
    18:00 +10°C° 0 mm 1 m/s 633 mmHg 29%
    19:00 +9°C° 0 mm 0 m/s 633 mmHg 30%
    20:00 +8°C° 0 mm 0 m/s 633 mmHg 31%
    21:00 +8°C° 0 mm 0 m/s 633 mmHg 32%
    22:00 +7°C° 0 mm 0 m/s 632 mmHg 32%
    23:00 +7°C° 0 mm 0 m/s 632 mmHg 33%

    16 Décembre, Dimanche

    Heure Température Précipitation Vent Pression Humidité
    00:00 +6°C° 0 mm 0 m/s 632 mmHg 34%
    01:00 +6°C° 0 mm 0 m/s 632 mmHg 34%
    02:00 +5°C° 0 mm 0 m/s 632 mmHg 34%
    03:00 +5°C° 0 mm 0 m/s 631 mmHg 34%
    04:00 +5°C° 0 mm 0 m/s 632 mmHg 34%
    05:00 +5°C° 0 mm 0 m/s 632 mmHg 34%
    06:00 +4°C° 0 mm 0 m/s 632 mmHg 34%
    07:00 +6°C° 0 mm 0 m/s 633 mmHg 31%
    08:00 +8°C° 0 mm 0 m/s 633 mmHg 27%
    09:00 +9°C° 0 mm 0 m/s 634 mmHg 23%
    10:00 +10°C° 0 mm 0 m/s 634 mmHg 22%
    11:00 +11°C° 0 mm 0 m/s 634 mmHg 21%
    12:00 +13°C° 0 mm 1 m/s 634 mmHg 20%
    13:00 +13°C° 0 mm 1 m/s 634 mmHg 19%
    14:00 +13°C° 0 mm 1 m/s 634 mmHg 19%
    15:00 +14°C° 0 mm 1 m/s 634 mmHg 19%
    16:00 +13°C° 0 mm 1 m/s 634 mmHg 22%
    17:00 +11°C° 0 mm 1 m/s 634 mmHg 25%
    18:00 +10°C° 0 mm 1 m/s 633 mmHg 28%
    19:00 +10°C° 0 mm 1 m/s 633 mmHg 30%
    20:00 +9°C° 0 mm 1 m/s 633 mmHg 31%
    21:00 +9°C° 0 mm 1 m/s 633 mmHg 32%
    22:00 +7°C° 0 mm 0 m/s 633 mmHg 33%
    23:00 +7°C° 0 mm 0 m/s 632 mmHg 34%
    Voir plus